Location: Dillon
(41.1766°N, 107.0923°W)
Time: 16:17:28
(UTC+00:00)

SO-50 - Pass Details

Date: 13 July 2022
Orbit: 585 x 698 km, 64.6° (Epoch: 08 August)

Event Time Altitude Azimuth Distance (km) Brightness Sun altitude
Rises 04:56:37 0° 236° (SW) 2,948 ? -19.4°
Reaches altitude 10° 04:59:03 10° 245° (WSW) 2,061 ? -19.6°
Maximum altitude 05:03:21 35° 312° (NW) 1,082 ? -20.1°
Drops below altitude 10° 05:07:48 10° 18° (NNE) 2,132 ? -20.5°
Sets 05:10:21 0° 27° (NNE) 3,064 ? -20.8°
